Home > Weather > Rio Branco > Past weeks

Flag for Brazil Past Weather in Rio Branco, Acre, Brazil — Yesterday and Last 2 Weeks

Now
68 °F

Clear.


Feels Like: 68 °F
Forecast: 69 / 93 °F
Wind: No wind

Location: Rio Branco Airport

Current Time: Jul 27, 2016 at 4:47:10 AM

Latest Report: Jul 27, 2016 at 4:00 AM


Visibility: 1 mi

Pressure: 29.92 "Hg

Humidity: 88%

Dew Point: 64 °F

Location of Rio BrancoLocation

Past Weather in Rio Branco — Graph

°F

Rio Branco Temperature Yesterday

Maximum temperature yesterday: 95 °F (at 3:00 PM)
Minimum temperature yesterday: 64 °F (at 3:00 AM)
Average temperature yesterday: 79 °F

High & Low Weather Summary for the Past Weeks

 TemperatureHumidityPressure
High95 °F (Jul 25, 2:00 PM)100% (Jul 13, 2:00 AM)30.09 "Hg (Jul 13, 2:00 AM)
Low61 °F (Jul 18, 6:00 AM)28% (Jul 25, 2:00 PM)29.80 "Hg (Jul 15, 3:00 PM)
Average77 °F69%29.94 "Hg
* Reported Jul 12 3:00 AM — Jul 27 3:00 AM, Rio Branco, Weather by CustomWeather, © 2016

Note: Actual official high and low records may vary slightly from our data, if they occured in-between our weather recording intervals... More about our weather records

Advertising

Rio Branco Weather History for the Previous 24 Hours

Scroll right to see more
 ConditionsComfort  
Time TempWeatherWind HumidityBarometerVisibility
3:00 AM
Wed, Jul 27
70 °FClear.No wind83%29.92 "Hg1 mi
2:00 AM70 °FClear.No wind83%29.92 "Hg1 mi
1:00 AM70 °FClear.No wind83%29.92 "Hg1 mi
12:00 AM72 °FClear.No wind78%29.92 "Hg1 mi
11:00 PM
Tue, Jul 26
73 °FClear.No wind74%29.95 "Hg2 mi
10:00 PM73 °FClear.No wind78%29.92 "Hg2 mi
9:00 PM77 °FClear.No wind69%29.92 "Hg4 mi
8:00 PM75 °FClear.No wind69%29.92 "Hg5 mi
7:00 PM77 °FClear.No wind57%29.89 "Hg10 mi
6:00 PM84 °FPassing clouds.No wind55%29.86 "HgN/A
5:00 PM93 °FPassing clouds.5 mph34%29.86 "HgN/A
4:00 PM93 °FScattered clouds.6 mph34%29.83 "HgN/A
3:00 PM95 °FScattered clouds.8 mph32%29.86 "HgN/A
2:00 PM93 °FScattered clouds.6 mph34%29.86 "HgN/A
1:00 PM93 °FScattered clouds.6 mph36%29.89 "HgN/A
12:00 PM93 °FScattered clouds.3 mph36%29.92 "HgN/A
11:00 AM91 °FPassing clouds.5 mph41%29.95 "HgN/A
10:00 AM90 °FSunny.6 mph43%29.95 "Hg10 mi
9:00 AM86 °FSunny.3 mph52%29.95 "Hg10 mi
8:00 AM79 °FSunny.2 mph61%29.95 "Hg10 mi
7:00 AM70 °FClear.No wind83%29.95 "Hg6 mi
6:00 AM64 °FSunny.No wind94%29.92 "Hg10 mi
5:00 AM64 °FClear.No wind94%29.89 "Hg10 mi
4:00 AM66 °FClear.1 mph94%29.86 "Hg6 mi
Weather by CustomWeather, © 2016

See weather overviewHow to use our weather pages